This is the latest recevied weather packets stored in our database for station/object N5SRF. If no packets are shown the sender has not sent any weather packets the latest 10 day(s).
| Time | Temp. | Humidity | Pressure | Rain* | Wind** | Luminosity | Snow |
|---|---|---|---|---|---|---|---|
| 1778182281 | 23.89° C | 66% | 1019.8 hPa | 0 mm | - | 663 W/m² | - |
| 1778181977 | 23.89° C | 67% | 1020 hPa | 0 mm | - | 518 W/m² | - |
| 1778181674 | 23.89° C | 67% | 1020.1 hPa | 0 mm | - | 602 W/m² | - |
| 1778181369 | 23.89° C | 69% | 1020.3 hPa | 0 mm | - | 720 W/m² | - |
| 1778181067 | 23.89° C | 68% | 1019.9 hPa | 0 mm | - | 797 W/m² | - |
| 1778180764 | 23.89° C | 68% | 1019.7 hPa | 0 mm | - | 440 W/m² | - |
| 1778180463 | 23.33° C | 70% | 1019.8 hPa | 0 mm | - | 646 W/m² | - |
| 1778180161 | 23.33° C | 70% | 1019.9 hPa | 0 mm | - | 551 W/m² | - |
| 1778179857 | 23.33° C | 71% | 1019.9 hPa | 0 mm | - | 873 W/m² | - |
| 1778179555 | 22.78° C | 72% | 1019.8 hPa | 0 mm | - | 1116 W/m² | - |
| 1778179253 | 22.78° C | 70% | 1020 hPa | 0 mm | - | 588 W/m² | - |
| 1778178948 | 22.78° C | 71% | 1020.4 hPa | 0 mm | - | 446 W/m² | - |
| 1778178646 | 22.78° C | 71% | 1020.5 hPa | 0 mm | - | 526 W/m² | - |
| 1778178342 | 22.78° C | 73% | 1020.6 hPa | 0 mm | - | 426 W/m² | - |
| 1778178038 | 22.78° C | 72% | 1020.9 hPa | 0 mm | - | 405 W/m² | - |
| 1778177735 | 22.78° C | 72% | 1020.6 hPa | 0 mm | - | 369 W/m² | - |
| 1778177431 | 22.22° C | 72% | 1020.4 hPa | 0 mm | - | 860 W/m² | - |
| 1778177128 | 22.22° C | 71% | 1020.5 hPa | 0 mm | - | 478 W/m² | - |
| 1778176825 | 21.67° C | 73% | 1020.6 hPa | 0 mm | - | 701 W/m² | - |
| 1778176521 | 22.22° C | 72% | 1020.5 hPa | 0 mm | - | 569 W/m² | - |
| 1778176219 | 22.22° C | 72% | 1020.9 hPa | 0 mm | - | 607 W/m² | - |
| 1778175916 | 22.22° C | 74% | 1021 hPa | 0 mm | - | 890 W/m² | - |
| 1778175614 | 22.22° C | 73% | 1020.9 hPa | 0 mm | - | 897 W/m² | - |
| 1778175310 | 21.67° C | 76% | 1021.1 hPa | 0 mm | - | 754 W/m² | - |
| 1778175008 | 21.11° C | 75% | 1021.2 hPa | 0 mm | - | 791 W/m² | - |
* Rain latest hour (hover to see other rain measurements)
** Current wind speed in m/s (hover to see current wind gust speed)